OCN48K EDDM-LGIR

Flight info

Callsign OCN48K
Flight time 2h 12m
Altitude 37000
Route VAVOR3S VAVOR M867 RADIZ DCT REKTI DCT NEMEK DCT ELTIB DCT PINDO DCT KEA UL607 GIVIS T514 XAVIS
Aircraft A320/M-SDE2E3FGIJ1LORWXYZ/HB1

Departure

Time 2026-05-05 15:23
Airport Munich Airport (EDDM)

Arrival

Time 2026-05-05 17:35
Airport Heraklion International Nikos Kazantzakis Airport (LGIR)
Time Latitude Longitude Altitude Speed Heading
2026-05-05 15:07 48.35694 11.79706 1480 ft 0 kts 83°
2026-05-05 15:13 48.35693 11.79685 1485 ft 2 kts 83°
2026-05-05 15:14 48.35691 11.79660 1485 ft 2 kts 83°
2026-05-05 15:14 48.35690 11.79643 1485 ft 2 kts 83°
2026-05-05 15:14 48.35687 11.79608 1481 ft 2 kts 83°
2026-05-05 15:14 48.35686 11.79583 1481 ft 2 kts 99°
2026-05-05 15:15 48.35691 11.79559 1471 ft 2 kts 135°
2026-05-05 15:15 48.35704 11.79545 1475 ft 0 kts 169°
2026-05-05 15:17 48.35693 11.79548 1471 ft 8 kts 169°
2026-05-05 15:17 48.35684 11.79551 1477 ft 2 kts 169°
2026-05-05 15:17 48.35683 11.79551 1477 ft 0 kts 169°
2026-05-05 15:17 48.35632 11.79566 1475 ft 4 kts 169°
2026-05-05 15:18 48.35608 11.79573 1483 ft 3 kts 169°
2026-05-05 15:18 48.35607 11.79573 1484 ft 3 kts 169°
2026-05-05 15:18 48.35601 11.79575 1478 ft 2 kts 169°
2026-05-05 15:18 48.35549 11.79590 1474 ft 9 kts 169°
2026-05-05 15:19 48.35491 11.79604 1483 ft 8 kts 175°
2026-05-05 15:19 48.35422 11.79606 1481 ft 16 kts 179°
2026-05-05 15:19 48.35287 11.79618 1483 ft 21 kts 172°
2026-05-05 15:19 48.35139 11.79644 1476 ft 22 kts 174°
2026-05-05 15:20 48.34981 11.79670 1472 ft 24 kts 173°
2026-05-05 15:20 48.34831 11.79710 1479 ft 19 kts 147°
2026-05-05 15:20 48.34815 11.79886 1485 ft 17 kts 83°
2026-05-05 15:20 48.34828 11.80046 1475 ft 15 kts 83°
2026-05-05 15:21 48.34804 11.80174 1471 ft 12 kts 126°
2026-05-05 15:21 48.34747 11.80231 1477 ft 16 kts 157°
2026-05-05 15:21 48.34630 11.80260 1473 ft 17 kts 173°
2026-05-05 15:21 48.34516 11.80273 1485 ft 11 kts 183°
2026-05-05 15:22 48.34486 11.80257 1481 ft 0 kts 205°
2026-05-05 15:22 48.34479 11.80252 1481 ft 4 kts 210°
2026-05-05 15:22 48.34464 11.80212 1485 ft 4 kts 255°
2026-05-05 15:22 48.34446 11.80010 1485 ft 48 kts 263°
2026-05-05 15:23 48.34385 11.79179 1486 ft 111 kts 263°
2026-05-05 15:23 48.34276 11.77768 1478 ft 159 kts 264°
2026-05-05 15:23 48.34146 11.76022 1952 ft 170 kts 264°
2026-05-05 15:23 48.34000 11.74242 2696 ft 174 kts 263°
2026-05-05 15:24 48.33802 11.72347 3086 ft 195 kts 253°
2026-05-05 15:24 48.32972 11.70638 3383 ft 218 kts 216°
2026-05-05 15:24 48.31451 11.69982 3864 ft 237 kts 185°
2026-05-05 15:24 48.29811 11.70055 4811 ft 232 kts 175°
2026-05-05 15:25 48.28307 11.70728 5695 ft 232 kts 151°
2026-05-05 15:25 48.26999 11.72269 6194 ft 252 kts 139°
2026-05-05 15:25 48.25607 11.74067 6580 ft 274 kts 144°
2026-05-05 15:25 48.24054 11.75799 7301 ft 282 kts 147°
2026-05-05 15:26 48.22415 11.77449 8158 ft 285 kts 148°
2026-05-05 15:26 48.20768 11.79085 9140 ft 284 kts 149°
2026-05-05 15:26 48.19108 11.80711 10048 ft 286 kts 149°
2026-05-05 15:26 48.17550 11.82611 10792 ft 296 kts 136°
2026-05-05 15:27 48.16133 11.85016 11081 ft 320 kts 133°
2026-05-05 15:27 48.14673 11.87629 11293 ft 342 kts 131°
2026-05-05 15:27 48.13144 11.90427 11827 ft 352 kts 131°
2026-05-05 15:27 48.11591 11.93289 12525 ft 356 kts 131°
2026-05-05 15:28 48.10020 11.96178 13245 ft 360 kts 131°
2026-05-05 15:28 48.08427 11.99098 13919 ft 364 kts 131°
2026-05-05 15:28 48.06678 12.01828 14544 ft 365 kts 142°
2026-05-05 15:28 48.04629 12.04057 15188 ft 366 kts 148°
2026-05-05 15:29 48.02511 12.06208 15826 ft 369 kts 148°
2026-05-05 15:29 48.00378 12.08370 16445 ft 373 kts 149°
2026-05-05 15:29 47.98254 12.10520 17050 ft 376 kts 149°
2026-05-05 15:29 47.96082 12.12720 17666 ft 379 kts 149°
2026-05-05 15:30 47.93894 12.14943 18247 ft 382 kts 148°
2026-05-05 15:30 47.91808 12.17445 18775 ft 386 kts 143°
2026-05-05 15:30 47.89755 12.20047 19301 ft 389 kts 143°
2026-05-05 15:30 47.87688 12.22658 19848 ft 391 kts 143°
2026-05-05 15:31 47.85608 12.25274 20383 ft 393 kts 143°
2026-05-05 15:31 47.83510 12.27902 20906 ft 395 kts 143°
2026-05-05 15:31 47.81404 12.30538 21424 ft 397 kts 143°
2026-05-05 15:31 47.79316 12.33149 21933 ft 399 kts 143°
2026-05-05 15:32 47.77185 12.35811 22427 ft 401 kts 143°
2026-05-05 15:32 47.75051 12.38477 22890 ft 402 kts 143°
2026-05-05 15:32 47.72904 12.41159 23349 ft 405 kts 143°
2026-05-05 15:32 47.70737 12.43861 23762 ft 408 kts 143°
2026-05-05 15:33 47.68560 12.46565 24147 ft 410 kts 143°
2026-05-05 15:33 47.66362 12.49281 24546 ft 411 kts 143°
2026-05-05 15:33 47.64157 12.51994 24874 ft 413 kts 144°
2026-05-05 15:33 47.61938 12.54725 25233 ft 416 kts 143°
2026-05-05 15:34 47.59744 12.57536 25623 ft 418 kts 142°
2026-05-05 15:34 47.57607 12.60389 25994 ft 420 kts 141°
2026-05-05 15:34 47.55449 12.63327 26241 ft 422 kts 140°
2026-05-05 15:34 47.53287 12.66280 26526 ft 425 kts 141°
2026-05-05 15:35 47.51105 12.69242 26875 ft 427 kts 141°
2026-05-05 15:35 47.48901 12.72203 27158 ft 429 kts 142°
2026-05-05 15:35 47.46677 12.75162 27460 ft 432 kts 142°
2026-05-05 15:35 47.44436 12.78133 27821 ft 434 kts 142°
2026-05-05 15:36 47.42184 12.81116 28163 ft 436 kts 142°
2026-05-05 15:36 47.39950 12.84073 28493 ft 438 kts 142°
2026-05-05 15:36 47.37678 12.87074 28799 ft 440 kts 142°
2026-05-05 15:36 47.35393 12.90090 29108 ft 442 kts 142°
2026-05-05 15:37 47.33095 12.93128 29408 ft 444 kts 141°
2026-05-05 15:37 47.30791 12.96174 29694 ft 446 kts 141°
2026-05-05 15:37 47.28481 12.99218 30053 ft 446 kts 142°
2026-05-05 15:37 47.26166 13.02266 30366 ft 446 kts 142°
2026-05-05 15:38 47.23852 13.05310 30619 ft 447 kts 142°
2026-05-05 15:38 47.21535 13.08357 30935 ft 447 kts 142°
2026-05-05 15:38 47.19210 13.11408 31231 ft 448 kts 142°
2026-05-05 15:38 47.16913 13.14413 31530 ft 449 kts 142°
2026-05-05 15:39 47.14578 13.17460 31826 ft 450 kts 142°
2026-05-05 15:39 47.12237 13.20512 32130 ft 451 kts 142°
2026-05-05 15:39 47.09893 13.23568 32472 ft 451 kts 142°
2026-05-05 15:39 47.07541 13.26633 32739 ft 452 kts 142°
2026-05-05 15:40 47.05182 13.29703 32961 ft 455 kts 142°
2026-05-05 15:40 47.02807 13.32785 33239 ft 456 kts 142°
2026-05-05 15:40 47.00429 13.35868 33581 ft 456 kts 142°
2026-05-05 15:40 46.98088 13.38906 33920 ft 455 kts 142°
2026-05-05 15:41 46.95720 13.41978 34187 ft 456 kts 142°
2026-05-05 15:41 46.93344 13.45052 34455 ft 456 kts 142°
2026-05-05 15:41 46.90967 13.48120 34771 ft 456 kts 142°
2026-05-05 15:41 46.88589 13.51184 35048 ft 455 kts 142°
2026-05-05 15:42 46.86214 13.54242 35320 ft 455 kts 142°
2026-05-05 15:42 46.83838 13.57297 35579 ft 455 kts 142°
2026-05-05 15:42 46.81459 13.60354 35786 ft 457 kts 142°
2026-05-05 15:42 46.79071 13.63420 36003 ft 457 kts 142°
2026-05-05 15:43 46.76681 13.66485 36229 ft 457 kts 143°
2026-05-05 15:43 46.74322 13.69505 36466 ft 458 kts 142°
2026-05-05 15:43 46.71930 13.72564 36725 ft 457 kts 142°
2026-05-05 15:43 46.69537 13.75625 36922 ft 458 kts 142°
2026-05-05 15:44 46.67142 13.78685 36962 ft 458 kts 143°
2026-05-05 15:44 46.62350 13.84792 36972 ft 458 kts 143°
2026-05-05 15:45 46.57560 13.90912 36968 ft 459 kts 141°
2026-05-05 15:45 46.52966 13.97281 36967 ft 460 kts 138°
2026-05-05 15:46 46.48439 14.03886 36978 ft 462 kts 139°
2026-05-05 15:46 46.43886 14.10452 36987 ft 462 kts 139°
2026-05-05 15:47 46.39281 14.16960 37014 ft 462 kts 140°
2026-05-05 15:47 46.34664 14.23429 36994 ft 462 kts 139°
2026-05-05 15:48 46.30079 14.29852 36999 ft 462 kts 139°
2026-05-05 15:48 46.25455 14.36322 36993 ft 463 kts 139°
2026-05-05 15:49 46.20838 14.42793 36999 ft 463 kts 139°
2026-05-05 15:49 46.16211 14.49256 36986 ft 463 kts 139°
2026-05-05 15:50 46.11574 14.55696 36991 ft 463 kts 139°
2026-05-05 15:50 46.06926 14.62140 37005 ft 464 kts 139°
2026-05-05 15:51 46.02302 14.68533 37011 ft 464 kts 139°
2026-05-05 15:51 45.97642 14.74968 37001 ft 464 kts 139°
2026-05-05 15:52 45.92975 14.81398 36996 ft 465 kts 139°
2026-05-05 15:52 45.88302 14.87814 36986 ft 465 kts 139°
2026-05-05 15:53 45.83656 14.94184 36989 ft 465 kts 139°
2026-05-05 15:53 45.78977 15.00591 36978 ft 465 kts 139°
2026-05-05 15:54 45.74297 15.06975 36969 ft 465 kts 139°
2026-05-05 15:54 45.69609 15.13355 36968 ft 465 kts 140°
2026-05-05 15:55 45.64944 15.19689 36965 ft 465 kts 140°
2026-05-05 15:55 45.60238 15.26048 36978 ft 466 kts 140°
2026-05-05 15:56 45.55500 15.32357 36973 ft 465 kts 141°
2026-05-05 15:56 45.50613 15.38393 36971 ft 465 kts 143°
2026-05-05 15:57 45.45662 15.44319 36976 ft 465 kts 143°
2026-05-05 15:57 45.40721 15.50295 36972 ft 466 kts 142°
2026-05-05 15:58 45.35840 15.56273 36982 ft 467 kts 142°
2026-05-05 15:58 45.30909 15.62297 36989 ft 467 kts 142°
2026-05-05 15:59 45.25972 15.68294 36973 ft 467 kts 143°
2026-05-05 15:59 45.21022 15.74284 36984 ft 468 kts 143°
2026-05-05 16:00 45.16093 15.80231 36985 ft 468 kts 143°
2026-05-05 16:00 45.11130 15.86216 36994 ft 469 kts 143°
2026-05-05 16:01 45.06154 15.92195 37006 ft 470 kts 143°
2026-05-05 16:01 45.01173 15.98167 36998 ft 470 kts 143°
2026-05-05 16:02 44.96186 16.04135 37001 ft 470 kts 143°
2026-05-05 16:02 44.91230 16.10060 37008 ft 470 kts 143°
2026-05-05 16:03 44.86233 16.16018 37011 ft 470 kts 143°
2026-05-05 16:03 44.81228 16.21958 37014 ft 470 kts 143°
2026-05-05 16:04 44.76218 16.27897 37001 ft 471 kts 143°
2026-05-05 16:04 44.71231 16.33801 37009 ft 472 kts 143°
2026-05-05 16:05 44.66178 16.39783 37022 ft 479 kts 142°
2026-05-05 16:05 44.61191 16.46043 37020 ft 481 kts 140°
2026-05-05 16:06 44.56280 16.52421 37009 ft 481 kts 140°
2026-05-05 16:06 44.51340 16.58784 37026 ft 483 kts 141°
2026-05-05 16:07 44.46383 16.65051 37038 ft 483 kts 141°
2026-05-05 16:07 44.41376 16.71327 37038 ft 483 kts 141°
2026-05-05 16:08 44.36373 16.77609 37049 ft 483 kts 141°
2026-05-05 16:08 44.31405 16.83848 37040 ft 484 kts 141°
2026-05-05 16:09 44.26396 16.90131 37047 ft 484 kts 141°
2026-05-05 16:09 44.21381 16.96408 37043 ft 485 kts 141°
2026-05-05 16:10 44.16361 17.02668 37056 ft 485 kts 141°
2026-05-05 16:10 44.11330 17.08923 37050 ft 485 kts 141°
2026-05-05 16:11 44.06325 17.15122 37041 ft 486 kts 141°
2026-05-05 16:12 43.96227 17.27631 37055 ft 487 kts 141°
2026-05-05 16:13 43.83561 17.43197 37066 ft 489 kts 141°
2026-05-05 16:13 43.78477 17.49433 37069 ft 489 kts 142°
2026-05-05 16:14 43.68315 17.61838 37076 ft 489 kts 141°
2026-05-05 16:15 43.58096 17.74246 37064 ft 490 kts 142°
2026-05-05 16:16 43.47823 17.86652 37078 ft 495 kts 142°
2026-05-05 16:17 43.40046 17.96025 37090 ft 496 kts 142°
2026-05-05 16:18 43.32257 18.05385 37101 ft 496 kts 142°
2026-05-05 16:19 43.24485 18.14664 37102 ft 496 kts 142°
2026-05-05 16:19 43.16666 18.23966 37100 ft 496 kts 142°
2026-05-05 16:20 43.06259 18.36338 37084 ft 498 kts 142°
2026-05-05 16:22 42.93153 18.51801 37111 ft 497 kts 142°
2026-05-05 16:23 42.82707 18.64068 37086 ft 497 kts 142°
2026-05-05 16:23 42.74828 18.73267 37085 ft 498 kts 142°
2026-05-05 16:24 42.69567 18.79401 37096 ft 498 kts 142°
2026-05-05 16:25 42.61669 18.88593 37080 ft 499 kts 142°
2026-05-05 16:25 42.53770 18.97737 37080 ft 501 kts 142°
2026-05-05 16:26 42.43160 19.09980 37082 ft 501 kts 142°
2026-05-05 16:27 42.37880 19.16049 37072 ft 502 kts 142°
2026-05-05 16:27 42.32551 19.22169 37064 ft 503 kts 142°
2026-05-05 16:28 42.27209 19.28281 37072 ft 504 kts 142°
2026-05-05 16:28 42.21849 19.34403 37075 ft 505 kts 142°
2026-05-05 16:29 42.16528 19.40471 37096 ft 505 kts 142°
2026-05-05 16:29 42.11154 19.46585 37089 ft 506 kts 142°
2026-05-05 16:30 42.05768 19.52691 37090 ft 507 kts 142°
2026-05-05 16:30 42.00371 19.58793 37102 ft 507 kts 142°
2026-05-05 16:31 41.95003 19.64844 37106 ft 507 kts 142°
2026-05-05 16:31 41.89590 19.70942 37082 ft 508 kts 143°
2026-05-05 16:32 41.84176 19.77037 37078 ft 509 kts 143°
2026-05-05 16:32 41.78739 19.83133 37086 ft 510 kts 143°
2026-05-05 16:33 41.73297 19.89223 37090 ft 510 kts 143°
2026-05-05 16:33 41.67881 19.95276 37102 ft 511 kts 143°
2026-05-05 16:34 41.62413 20.01361 37076 ft 512 kts 143°
2026-05-05 16:34 41.56921 20.07443 37088 ft 513 kts 143°
2026-05-05 16:35 41.51423 20.13535 37087 ft 514 kts 143°
2026-05-05 16:35 41.45959 20.19596 37087 ft 514 kts 142°
2026-05-05 16:36 41.40452 20.25690 37077 ft 515 kts 143°
2026-05-05 16:36 41.34927 20.31758 37076 ft 515 kts 143°
2026-05-05 16:37 41.29388 20.37826 37083 ft 516 kts 143°
2026-05-05 16:37 41.23838 20.43902 37097 ft 517 kts 143°
2026-05-05 16:38 41.18322 20.49936 37103 ft 517 kts 142°
2026-05-05 16:38 41.12767 20.56009 37099 ft 518 kts 142°
2026-05-05 16:39 41.07197 20.62083 37090 ft 518 kts 142°
2026-05-05 16:39 41.01621 20.68141 37090 ft 519 kts 142°
2026-05-05 16:40 40.96030 20.74198 37098 ft 519 kts 142°
2026-05-05 16:40 40.90476 20.80195 37098 ft 519 kts 142°
2026-05-05 16:41 40.84885 20.86221 37105 ft 518 kts 142°
2026-05-05 16:41 40.79295 20.92235 37096 ft 518 kts 142°
2026-05-05 16:42 40.73702 20.98242 37101 ft 518 kts 142°
2026-05-05 16:42 40.68083 21.04189 37098 ft 518 kts 143°
2026-05-05 16:43 40.62378 21.09860 37085 ft 517 kts 145°
2026-05-05 16:43 40.56583 21.15477 37084 ft 517 kts 145°
2026-05-05 16:44 40.50808 21.21132 37082 ft 518 kts 144°
2026-05-05 16:44 40.45046 21.26825 37082 ft 518 kts 144°
2026-05-05 16:45 40.39283 21.32518 37082 ft 519 kts 144°
2026-05-05 16:45 40.33512 21.38191 37077 ft 519 kts 144°
2026-05-05 16:46 40.27768 21.43809 37071 ft 519 kts 144°
2026-05-05 16:46 40.21981 21.49462 37076 ft 519 kts 144°
2026-05-05 16:47 40.16190 21.55113 37074 ft 519 kts 144°
2026-05-05 16:47 40.10402 21.60749 37064 ft 519 kts 144°
2026-05-05 16:48 40.04608 21.66370 37077 ft 519 kts 144°
2026-05-05 16:48 39.98817 21.71981 37071 ft 519 kts 144°
2026-05-05 16:49 39.93058 21.77556 37074 ft 518 kts 144°
2026-05-05 16:49 39.87267 21.83142 37073 ft 518 kts 144°
2026-05-05 16:50 39.81461 21.88723 37064 ft 518 kts 144°
2026-05-05 16:50 39.75665 21.94290 37055 ft 518 kts 144°
2026-05-05 16:51 39.69862 21.99852 37049 ft 518 kts 145°
2026-05-05 16:51 39.64057 22.05402 37046 ft 518 kts 145°
2026-05-05 16:52 39.58254 22.10936 37022 ft 518 kts 145°
2026-05-05 16:52 39.52447 22.16474 37028 ft 518 kts 145°
2026-05-05 16:53 39.46674 22.21961 37019 ft 519 kts 145°
2026-05-05 16:53 39.40844 22.27480 37021 ft 519 kts 145°
2026-05-05 16:54 39.35013 22.32994 37018 ft 519 kts 145°
2026-05-05 16:54 39.29179 22.38504 37026 ft 520 kts 146°
2026-05-05 16:55 39.23337 22.44004 37029 ft 520 kts 146°
2026-05-05 16:55 39.17486 22.49511 37028 ft 521 kts 145°
2026-05-05 16:56 39.11666 22.54979 37012 ft 522 kts 145°
2026-05-05 16:56 39.05791 22.60473 36994 ft 522 kts 146°
2026-05-05 16:57 38.99914 22.65956 37007 ft 523 kts 146°
2026-05-05 16:57 38.94029 22.71443 37026 ft 523 kts 146°
2026-05-05 16:58 38.88140 22.76935 37041 ft 523 kts 146°
2026-05-05 16:58 38.82245 22.82414 37042 ft 524 kts 145°
2026-05-05 16:59 38.76380 22.87845 37031 ft 525 kts 146°
2026-05-05 16:59 38.70454 22.93321 37030 ft 525 kts 146°
2026-05-05 17:00 38.64528 22.98792 37031 ft 526 kts 146°
2026-05-05 17:00 38.58590 23.04253 37032 ft 526 kts 146°
2026-05-05 17:01 38.52647 23.09720 37031 ft 526 kts 145°
2026-05-05 17:01 38.46705 23.15179 37046 ft 526 kts 145°
2026-05-05 17:02 38.40791 23.20583 37050 ft 526 kts 145°
2026-05-05 17:02 38.34835 23.26006 37055 ft 526 kts 145°
2026-05-05 17:03 38.28879 23.31430 37055 ft 526 kts 145°
2026-05-05 17:03 38.22928 23.36855 37057 ft 526 kts 145°
2026-05-05 17:04 38.16974 23.42262 37055 ft 526 kts 146°
2026-05-05 17:04 38.11014 23.47656 37079 ft 526 kts 145°
2026-05-05 17:05 38.05060 23.53036 37075 ft 525 kts 145°
2026-05-05 17:05 37.99151 23.58378 37070 ft 525 kts 146°
2026-05-05 17:06 37.93197 23.63738 37082 ft 525 kts 146°
2026-05-05 17:06 37.87248 23.69078 37080 ft 524 kts 146°
2026-05-05 17:07 37.81291 23.74412 37084 ft 524 kts 146°
2026-05-05 17:07 37.75333 23.79742 37079 ft 524 kts 146°
2026-05-05 17:08 37.69386 23.85057 37078 ft 523 kts 146°
2026-05-05 17:08 37.63485 23.90320 37065 ft 521 kts 146°
2026-05-05 17:09 37.57650 23.95516 37049 ft 509 kts 146°
2026-05-05 17:09 37.51871 24.00646 37048 ft 508 kts 146°
2026-05-05 17:10 37.46093 24.05756 37057 ft 508 kts 146°
2026-05-05 17:10 37.40305 24.10871 37053 ft 508 kts 146°
2026-05-05 17:11 37.34522 24.15982 37061 ft 508 kts 146°
2026-05-05 17:11 37.28530 24.20629 37059 ft 506 kts 154°
2026-05-05 17:12 37.22346 24.24720 37037 ft 506 kts 154°
2026-05-05 17:12 37.16116 24.28829 37044 ft 506 kts 154°
2026-05-05 17:13 37.09887 24.32941 37049 ft 506 kts 154°
2026-05-05 17:13 37.03650 24.37050 37052 ft 506 kts 155°
2026-05-05 17:14 36.98468 24.40461 37068 ft 506 kts 154°
2026-05-05 17:14 36.92233 24.44560 37049 ft 506 kts 154°
2026-05-05 17:15 36.84984 24.49302 36742 ft 506 kts 154°
2026-05-05 17:15 36.81861 24.51339 36009 ft 506 kts 154°
2026-05-05 17:15 36.79752 24.52714 35517 ft 507 kts 154°
2026-05-05 17:16 36.76668 24.54727 34790 ft 508 kts 154°
2026-05-05 17:16 36.73534 24.56776 34051 ft 509 kts 154°
2026-05-05 17:16 36.70390 24.58834 33159 ft 511 kts 154°
2026-05-05 17:16 36.67237 24.60893 32264 ft 513 kts 154°
2026-05-05 17:17 36.64062 24.62961 31335 ft 516 kts 153°
2026-05-05 17:17 36.60868 24.65037 30378 ft 520 kts 153°
2026-05-05 17:17 36.57655 24.67117 29513 ft 519 kts 153°
2026-05-05 17:17 36.54472 24.69178 28822 ft 513 kts 153°
2026-05-05 17:18 36.51318 24.71221 28162 ft 507 kts 153°
2026-05-05 17:18 36.48209 24.73236 27526 ft 502 kts 153°
2026-05-05 17:18 36.45132 24.75231 26917 ft 496 kts 153°
2026-05-05 17:18 36.42129 24.77176 26317 ft 491 kts 153°
2026-05-05 17:19 36.39120 24.79118 25728 ft 485 kts 153°
2026-05-05 17:19 36.36134 24.81043 25147 ft 480 kts 153°
2026-05-05 17:19 36.33185 24.82942 24571 ft 475 kts 153°
2026-05-05 17:19 36.30261 24.84824 24002 ft 471 kts 153°
2026-05-05 17:20 36.27374 24.86683 23410 ft 466 kts 153°
2026-05-05 17:20 36.24516 24.88522 22785 ft 461 kts 153°
2026-05-05 17:20 36.21678 24.90345 22200 ft 456 kts 153°
2026-05-05 17:20 36.18871 24.92145 21629 ft 452 kts 153°
2026-05-05 17:21 36.16094 24.93926 21042 ft 447 kts 153°
2026-05-05 17:21 36.13380 24.95665 20506 ft 442 kts 153°
2026-05-05 17:21 36.10681 24.97392 19598 ft 433 kts 153°
2026-05-05 17:22 36.05411 25.00764 17737 ft 420 kts 153°
2026-05-05 17:22 36.02844 25.02407 16801 ft 412 kts 153°
2026-05-05 17:22 36.00320 25.04019 15902 ft 404 kts 153°
2026-05-05 17:22 35.97842 25.05601 15037 ft 397 kts 153°
2026-05-05 17:23 35.95409 25.07150 14192 ft 390 kts 152°
2026-05-05 17:23 35.93020 25.08667 13306 ft 383 kts 152°
2026-05-05 17:23 35.90673 25.10158 12368 ft 376 kts 152°
2026-05-05 17:23 35.88364 25.11628 11438 ft 371 kts 152°
2026-05-05 17:24 35.86091 25.13076 10531 ft 364 kts 152°
2026-05-05 17:24 35.83889 25.14482 9815 ft 354 kts 152°
2026-05-05 17:24 35.81787 25.15822 9660 ft 327 kts 152°
2026-05-05 17:24 35.79828 25.17066 9339 ft 310 kts 152°
2026-05-05 17:25 35.77932 25.18265 8748 ft 303 kts 151°
2026-05-05 17:25 35.76673 25.19060 8331 ft 300 kts 151°
2026-05-05 17:25 35.74231 25.20605 7483 ft 295 kts 151°
2026-05-05 17:25 35.72416 25.21753 7152 ft 293 kts 150°
2026-05-05 17:26 35.70599 25.22905 7087 ft 294 kts 150°
2026-05-05 17:26 35.68784 25.24057 7089 ft 294 kts 150°
2026-05-05 17:26 35.66965 25.25212 7089 ft 294 kts 150°
2026-05-05 17:26 35.65148 25.26364 7088 ft 294 kts 150°
2026-05-05 17:27 35.63330 25.27514 7090 ft 294 kts 150°
2026-05-05 17:27 35.61534 25.28647 7090 ft 294 kts 150°
2026-05-05 17:27 35.59714 25.29791 7093 ft 294 kts 150°
2026-05-05 17:27 35.57894 25.30935 7095 ft 294 kts 150°
2026-05-05 17:28 35.56073 25.32083 7095 ft 294 kts 150°
2026-05-05 17:28 35.54253 25.33232 7098 ft 294 kts 150°
2026-05-05 17:28 35.52429 25.34381 6919 ft 295 kts 151°
2026-05-05 17:28 35.50628 25.35513 6575 ft 282 kts 150°
2026-05-05 17:29 35.48912 25.36588 6076 ft 274 kts 151°
2026-05-05 17:29 35.47225 25.37648 5483 ft 271 kts 153°
2026-05-05 17:29 35.45473 25.38416 5016 ft 262 kts 169°
2026-05-05 17:29 35.43725 25.38613 4561 ft 252 kts 184°
2026-05-05 17:30 35.42029 25.38299 3894 ft 242 kts 195°
2026-05-05 17:30 35.40420 25.37864 3520 ft 233 kts 195°
2026-05-05 17:30 35.38860 25.37448 3377 ft 221 kts 195°
2026-05-05 17:30 35.37415 25.37067 3259 ft 204 kts 195°
2026-05-05 17:31 35.36070 25.36712 3168 ft 195 kts 196°
2026-05-05 17:31 35.34759 25.36362 3105 ft 191 kts 198°
2026-05-05 17:31 35.33635 25.35621 2995 ft 178 kts 229°
2026-05-05 17:31 35.33018 25.34404 2875 ft 163 kts 255°
2026-05-05 17:32 35.32923 25.33067 2609 ft 156 kts 278°
2026-05-05 17:32 35.33022 25.31742 2379 ft 155 kts 277°
2026-05-05 17:32 35.33110 25.30479 2135 ft 142 kts 276°
2026-05-05 17:32 35.33187 25.29338 1951 ft 132 kts 276°
2026-05-05 17:33 35.33264 25.28228 1745 ft 131 kts 276°
2026-05-05 17:33 35.33341 25.27124 1553 ft 130 kts 277°
2026-05-05 17:33 35.33418 25.26019 1356 ft 131 kts 276°
2026-05-05 17:33 35.33496 25.24912 1164 ft 130 kts 275°
2026-05-05 17:34 35.33573 25.23811 969 ft 130 kts 276°
2026-05-05 17:34 35.33650 25.22715 779 ft 129 kts 276°
2026-05-05 17:34 35.33727 25.21624 582 ft 128 kts 277°
2026-05-05 17:34 35.33799 25.20539 362 ft 127 kts 277°
2026-05-05 17:35 35.33869 25.19465 205 ft 126 kts 277°
2026-05-05 17:35 35.33946 25.18411 97 ft 117 kts 278°
2026-05-05 17:35 35.34002 25.17648 92 ft 52 kts 274°
2026-05-05 17:35 35.34021 25.17382 91 ft 28 kts 276°
2026-05-05 17:36 35.34009 25.17145 91 ft 27 kts 248°
2026-05-05 17:36 35.33988 25.17084 90 ft 0 kts 246°
2026-05-05 17:37 35.33974 25.17059 90 ft 9 kts 226°
2026-05-05 17:37 35.33943 25.17092 90 ft 6 kts 105°
2026-05-05 17:37 35.33935 25.17170 90 ft 17 kts 95°
2026-05-05 17:37 35.33925 25.17315 92 ft 16 kts 95°
2026-05-05 17:38 35.33916 25.17448 91 ft 15 kts 94°
2026-05-05 17:38 35.33907 25.17574 92 ft 14 kts 95°
2026-05-05 17:38 35.33865 25.17622 91 ft 5 kts 180°
2026-05-05 17:38 35.33859 25.17620 91 ft 0 kts 195°
2026-05-05 17:39 35.33847 25.17590 92 ft 9 kts 265°
2026-05-05 17:39 35.33852 25.17562 91 ft 2 kts 297°
2026-05-05 17:39 35.33874 25.17539 91 ft 5 kts 321°